Weather History for K40B - March, 2012

Change the Weather History Date:

Thursday, March 22, 2012

  Actual Average Record
Temperature  
Mean Temperature 55 °F -  
Max Temperature 73 °F 34 °F 73 °F (2012)
Min Temperature 38 °F 11 °F -7 °F (2013)
Degree Days  
Heating Degree Days 10    
Growing Degree Days 5 (Base 50)    
Moisture  
Dew Point 48 °F    
Average Humidity 61    
Maximum Humidity 86    
Minimum Humidity 44    
Precipitation  
Precipitation 0.00 in - - ()
Sea Level Pressure  
Sea Level Pressure 30.02 in    
Wind  
Wind Speed 3 mph (WSW)    
Max Wind Speed 9 mph    
Max Gust Speed 21 mph    
Averages and records for this station are not official NWS values.
T = Trace of Precipitation, MM = Missing Value Source: NWS Daily Summary

Daily Weather History Graph

Daily Weather History Graph

Search for Another Location

Airport or City:

Trip Planner

Search our weather history database for the weather conditions in past years. The results will help you decide how hot, cold, wet, or windy it might be!

Date:

Astronomy

Mar. 22, 2012 Rise Set
Actual Time 6:36 AM EDT 6:54 PM EDT
Civil Twilight 6:06 AM EDT 7:24 PM EDT
Nautical Twilight 5:30 AM EDT 8:00 PM EDT
Astronomical Twilight 4:53 AM EDT 8:36 PM EDT
Moon 6:11 AM EDT (3/22) 7:20 PM EDT (3/22)
Length of Visible Light 13h 18m
Length of Day
12h 17m
New Moon, 0% of the Moon is Illuminated
Mar 22
New Moon
Mar 30
First Quarter
Apr 6
Full
Apr 13
Last Quarter
Apr 21
New

Hourly Weather History & Observations

Time (EDT) Temp. Dew Point Humidity Pressure Visibility Wind Dir Wind Speed Gust Speed Precip Events Conditions
12:25 AM 38.7 °F - N/A% 30.10 in - Calm Calm - N/A   Unknown
1:25 AM 40.3 °F - N/A% 30.09 in - Calm Calm - N/A   Unknown
2:25 AM 48.7 °F - N/A% 30.08 in - Variable 2.3 mph - N/A   Unknown
3:25 AM 52.3 °F 47.5 °F 84% 30.06 in - Variable 4.6 mph - N/A   Unknown
4:25 AM 49.6 °F - N/A% 30.06 in - Variable 4.6 mph - N/A   Unknown
5:25 AM 47.5 °F - N/A% 30.06 in - Variable 3.5 mph - N/A   Unknown
6:25 AM 46.4 °F - N/A% 30.06 in - Variable 2.3 mph - N/A   Unknown
7:25 AM 47.5 °F - N/A% 30.04 in - Variable 3.5 mph - N/A   Unknown
8:25 AM 58.3 °F 47.8 °F 68% 30.05 in - Variable 3.5 mph - N/A   Unknown
9:25 AM 61.2 °F 48.7 °F 64% 30.03 in - Variable 2.3 mph - N/A   Unknown
10:25 AM 64.9 °F 49.8 °F 58% 30.01 in - Variable 6.9 mph 15.0 mph N/A   Unknown
11:25 AM 68.7 °F 50.7 °F 53% 30.00 in - SW 6.9 mph 19.6 mph N/A   Unknown
12:25 PM 72.9 °F 50.0 °F 44% 29.98 in - Variable 6.9 mph 18.4 mph N/A   Unknown
1:27 PM 69.8 °F 50.0 °F 49% 30.00 in - WSW 9.2 mph 20.7 mph N/A   Unknown
2:25 PM 67.3 °F 50.2 °F 54% 29.99 in - Variable 4.6 mph 17.3 mph N/A   Unknown
3:25 PM 66.0 °F 50.7 °F 58% 29.96 in - Variable 4.6 mph 11.5 mph N/A   Unknown
4:25 PM 66.0 °F 49.8 °F 56% 29.95 in - Variable 5.8 mph 11.5 mph N/A   Unknown
5:25 PM 62.8 °F 45.5 °F 53% 29.94 in - Variable 5.8 mph 15.0 mph N/A   Unknown
6:25 PM 59.5 °F 44.1 °F 57% 29.97 in - Variable 2.3 mph 12.7 mph N/A   Unknown
7:25 PM 53.4 °F 42.6 °F 67% 29.97 in - Variable 2.3 mph - N/A   Unknown
8:25 PM 44.8 °F 40.8 °F 86% 29.99 in - Calm Calm - N/A   Unknown
9:25 PM 39.2 °F - N/A% 29.99 in - Calm Calm - N/A   Unknown
10:25 PM 38.8 °F - N/A% 30.00 in - Calm Calm - 0.00 in   Unknown
11:25 PM 38.5 °F - N/A% 30.01 in - Calm Calm - 0.00 in   Unknown